This demonstration page uses our WeatherBlox Daily Observations layout. Learn more.

39.29038, -76.61219

Hourly Observations for April 26, 2018

Temp ( °F °C ) Dew Point ( °F °C ) Humidity (%) Winds ( mph kmh ) Pressure ( in mb ) Visibility ( mi km ) Precip ( " mm )
12:54 am 00:54 undefined 61 16.1 52 11.1 72 72 undefined N/A 29.71 1006 N/A 0 0
1:54 am 01:54 undefined 60 15.6 49 9.4 67 67 undefined N/A 29.71 1006 N/A 0 0
2:54 am 02:54 undefined 58 14.4 42 5.6 56 56 undefined N/A 29.72 1007 N/A 0 0
3:54 am 03:54 undefined 54 12.2 40 4.4 59 59 undefined N/A 29.75 1008 N/A 0 0
4:54 am 04:54 undefined 52 11.1 38 3.3 59 59 undefined N/A 29.79 1009 N/A 0 0
5:54 am 05:54 undefined 51 10.6 38 3.3 61 61 undefined N/A 29.8 1009 N/A 0 0
6:54 am 06:54 undefined 51 10.6 38 3.3 61 61 undefined N/A 29.81 1010 N/A 0 0
7:54 am 07:54 undefined 54 12.2 38 3.3 55 55 undefined N/A 29.83 1010 N/A 0 0
8:54 am 08:54 undefined 55 12.8 37 2.8 51 51 undefined N/A 29.86 1011 N/A 0 0
9:54 am 09:54 undefined 58 14.4 38 3.3 48 48 undefined N/A 29.85 1011 N/A 0 0
10:54 am 10:54 undefined 61 16.1 40 4.4 46 46 undefined N/A 29.86 1011 N/A 0 0
11:54 am 11:54 undefined 62 16.7 39 3.9 43 43 undefined N/A 29.86 1011 N/A 0 0
12:54 pm 12:54 undefined 63 17.2 39 3.9 41 41 undefined N/A 29.85 1011 N/A 0 0
1:54 pm 13:54 undefined 65 18.3 39 3.9 39 39 undefined N/A 29.85 1011 N/A 0 0
2:54 pm 14:54 undefined 67 19.4 39 3.9 36 36 undefined N/A 29.84 1010 N/A 0 0
3:54 pm 15:54 undefined 70 21.1 39 3.9 32 32 undefined N/A 29.83 1010 N/A 0 0
4:54 pm 16:54 undefined 69 20.6 35 1.7 29 29 undefined N/A 29.83 1010 N/A 0 0
5:54 pm 17:54 undefined 69 20.6 34 1.1 27 27 undefined N/A 29.85 1011 N/A 0 0
6:54 pm 18:54 undefined 69 20.6 33 0.6 26 26 undefined N/A 29.84 1011 N/A 0 0
7:54 pm 19:54 undefined 68 20 34 1.1 28 28 undefined N/A 29.85 1011 N/A 0 0
8:54 pm 20:54 undefined 64 17.8 42 5.6 45 45 undefined N/A 29.88 1012 N/A 0 0
9:54 pm 21:54 undefined 63 17.2 42 5.6 47 47 undefined N/A 29.88 1012 N/A 0 0
10:54 pm 22:54 undefined 62 16.7 42 5.6 48 48 undefined N/A 29.88 1012 N/A 0 0
11:54 pm 23:54 undefined 62 16.7 43 6.1 50 50 undefined N/A 29.86 1011 N/A 0 0

Powered by AerisWeather